timestamp,surface_pressure_avg,surface_temp_avg,battery_voltage,lat,long
2019-10-27 00:00:00+00:00,352.7497,9.9,12.89,47.84626,-54.09684
2019-10-27 00:10:00+00:00,346.9113,9.9,12.81,47.84626,-54.09684
2019-10-27 00:20:00+00:00,339.5946,9.9,12.89,47.84626,-54.09684
2019-10-27 00:30:00+00:00,329.7446,9.89,12.97,47.84626,-54.09684
2019-10-27 00:40:00+00:00,321.8314,9.89,12.97,47.84626,-54.09684
2019-10-27 00:50:00+00:00,312.5714,9.9,12.97,47.84626,-54.09684
2019-10-27 01:00:00+00:00,298.7996,9.9,12.89,47.84626,-54.09684
2019-10-27 01:10:00+00:00,288.283,9.9,12.81,47.84626,-54.09684
2019-10-27 01:20:00+00:00,280.1931,9.9,12.89,47.84626,-54.09684
2019-10-27 01:30:00+00:00,268.5364,9.89,12.89,47.84626,-54.09684
2019-10-27 01:40:00+00:00,256.1447,9.89,12.97,47.84626,-54.09684
2019-10-27 01:50:00+00:00,247.7181,9.89,12.97,47.84626,-54.09684
2019-10-27 02:00:00+00:00,237.6081,9.9,12.89,47.84626,-54.09684
2019-10-27 02:10:00+00:00,225.9198,9.9,12.81,47.84626,-54.09684
2019-10-27 02:20:00+00:00,218.1064,9.8,12.89,47.84626,-54.09684
2019-10-27 02:30:00+00:00,210.9931,9.8,12.89,47.84626,-54.09684
2019-10-27 02:40:00+00:00,202.5531,9.7,12.89,47.84626,-54.09684
2019-10-27 02:50:00+00:00,196.4581,9.7,12.97,47.84626,-54.09684
2019-10-27 03:00:00+00:00,192.9831,9.68,12.81,47.84626,-54.09684
2019-10-27 03:10:00+00:00,189.1564,9.68,12.81,47.84626,-54.09684
2019-10-27 03:20:00+00:00,185.0914,9.69,12.89,47.84626,-54.09684
2019-10-27 03:30:00+00:00,180.6698,9.68,12.89,47.84626,-54.09684
2019-10-27 03:40:00+00:00,177.5149,9.68,12.89,47.84626,-54.09684
2019-10-27 03:50:00+00:00,178.2614,9.7,12.89,47.84626,-54.09684
2019-10-27 04:00:00+00:00,179.2514,9.69,12.81,47.84626,-54.09684
2019-10-27 04:10:00+00:00,177.4732,9.6,12.73,47.84626,-54.09684
2019-10-27 04:20:00+00:00,177.6014,9.5,12.89,47.84626,-54.09684
2019-10-27 04:30:00+00:00,178.9531,9.47,12.89,47.84626,-54.09684
2019-10-27 04:40:00+00:00,179.8566,9.4,12.89,47.84626,-54.09684
2019-10-27 04:50:00+00:00,182.9315,9.4,12.89,47.84626,-54.09684
2019-10-27 05:00:00+00:00,185.4098,9.4,12.81,47.84626,-54.09684
2019-10-27 05:10:00+00:00,187.6631,9.39,12.73,47.84626,-54.09684
2019-10-27 05:20:00+00:00,191.3964,9.33,12.89,47.84626,-54.09684
2019-10-27 05:30:00+00:00,195.5397,9.3,12.89,47.84626,-54.09684
2019-10-27 05:40:00+00:00,197.8165,9.3,12.89,47.84626,-54.09684
2019-10-27 05:50:00+00:00,202.0248,9.34,12.89,47.84626,-54.09684
2019-10-27 06:00:00+00:00,208.3531,9.37,12.81,47.84626,-54.09684
2019-10-27 06:10:00+00:00,213.3531,9.39,12.73,47.84626,-54.09684
2019-10-27 06:20:00+00:00,219.2148,9.39,12.81,47.84626,-54.09684
2019-10-27 06:30:00+00:00,225.1864,9.39,12.89,47.84626,-54.09684
2019-10-27 06:40:00+00:00,229.3297,9.39,12.89,47.84626,-54.09684
2019-10-27 06:50:00+00:00,233.1898,9.38,12.89,47.84626,-54.09684
2019-10-27 07:00:00+00:00,241.5797,9.38,12.81,47.84626,-54.09684
2019-10-27 07:10:00+00:00,249.5198,9.4,12.73,47.84626,-54.09684
2019-10-27 07:20:00+00:00,258.548,9.4,12.81,47.84626,-54.09684
2019-10-27 07:30:00+00:00,265.618,9.48,12.81,47.84626,-54.09684
2019-10-27 07:40:00+00:00,274.8181,9.64,12.89,47.84626,-54.09684
2019-10-27 07:50:00+00:00,282.7097,9.78,12.89,47.84626,-54.09684
2019-10-27 08:00:00+00:00,291.2513,9.8,12.81,47.84626,-54.09684
2019-10-27 08:10:00+00:00,297.6663,9.83,12.73,47.84626,-54.09684
2019-10-27 08:20:00+00:00,307.9847,9.8,12.81,47.84626,-54.09684
2019-10-27 08:30:00+00:00,316.3846,9.82,12.81,47.84626,-54.09684
2019-10-27 08:40:00+00:00,324.9763,9.89,12.89,47.84626,-54.09684
2019-10-27 08:50:00+00:00,334.4896,9.9,12.89,47.84626,-54.09684
2019-10-27 09:00:00+00:00,345.718,9.9,12.81,47.84626,-54.09684
2019-10-27 09:10:00+00:00,351.313,9.9,12.73,47.84626,-54.09684
2019-10-27 09:20:00+00:00,355.983,9.9,12.81,47.84626,-54.09684
2019-10-27 09:30:00+00:00,364.7963,9.9,12.81,47.84626,-54.09684
2019-10-27 09:40:00+00:00,369.8848,9.9,12.89,47.84626,-54.09684
2019-10-27 09:50:00+00:00,370.083,9.9,12.89,47.84626,-54.09684
2019-10-27 10:00:00+00:00,374.0629,9.9,12.81,47.84626,-54.09684
2019-10-27 10:10:00+00:00,380.5795,9.9,12.73,47.84626,-54.09684
2019-10-27 10:20:00+00:00,383.4314,9.9,12.81,47.84626,-54.09684
2019-10-27 10:30:00+00:00,383.3146,9.9,12.89,47.84626,-54.09684
2019-10-27 10:40:00+00:00,385.8479,9.9,12.89,47.84626,-54.09684
2019-10-27 10:50:00+00:00,387.303,9.9,13.05,47.84626,-54.09684
2019-10-27 11:00:00+00:00,387.5995,9.9,13.53,47.84626,-54.09684
2019-10-27 11:10:00+00:00,384.6779,9.9,13.37,47.84626,-54.09684
2019-10-27 11:20:00+00:00,381.8212,9.9,13.44,47.84626,-54.09684
2019-10-27 11:30:00+00:00,381.2031,9.9,13.68,47.84626,-54.09684
2019-10-27 11:40:00+00:00,376.6946,9.9,15.99,47.84626,-54.09684
2019-10-27 11:50:00+00:00,368.7296,9.86,16.07,47.84626,-54.09684
2019-10-27 12:00:00+00:00,365.9378,9.81,16.55,47.84626,-54.09684
2019-10-27 12:10:00+00:00,362.8546,9.81,14.56,47.84626,-54.09684
2019-10-27 12:20:00+00:00,352.9063,9.8,16.95,47.84626,-54.09684
2019-10-27 12:30:00+00:00,346.003,9.8,16.87,47.84626,-54.09684
2019-10-27 12:40:00+00:00,344.1595,9.8,16.79,47.84626,-54.09684
2019-10-27 12:50:00+00:00,338.4713,9.8,14.64,47.84626,-54.09684
2019-10-27 13:00:00+00:00,325.3346,9.8,14.48,47.84626,-54.09684
2019-10-27 13:10:00+00:00,317.1229,9.71,14.32,47.84626,-54.09684
2019-10-27 13:20:00+00:00,310.5447,9.7,14.4,47.84626,-54.09684
2019-10-27 13:30:00+00:00,297.5964,9.7,14.56,47.84626,-54.09684
2019-10-27 13:40:00+00:00,285.6464,9.7,14.72,47.84626,-54.09684
2019-10-27 13:50:00+00:00,277.9264,9.87,14.64,47.84626,-54.09684
2019-10-27 14:00:00+00:00,268.9614,9.7,14.72,47.84626,-54.09684
2019-10-27 14:10:00+00:00,255.7197,9.7,14.64,47.84626,-54.09684
2019-10-27 14:20:00+00:00,245.7031,9.7,14.64,47.84626,-54.09684
2019-10-27 14:30:00+00:00,239.9514,9.7,14.8,47.84626,-54.09684
2019-10-27 14:40:00+00:00,232.8314,9.7,15.2,47.84626,-54.09684
2019-10-27 14:50:00+00:00,223.5581,9.79,14.64,47.84626,-54.09684
2019-10-27 15:00:00+00:00,217.0014,9.78,14.48,47.84626,-54.09684
2019-10-27 15:10:00+00:00,211.9831,9.8,14.32,47.84626,-54.09684
2019-10-27 15:20:00+00:00,202.7065,9.8,14.96,47.84626,-54.09684
2019-10-27 15:30:00+00:00,193.8881,9.7,14.56,47.84626,-54.09684
2019-10-27 15:40:00+00:00,190.9297,9.7,15.35,47.84626,-54.09684
2019-10-27 15:50:00+00:00,186.8015,9.73,14.8,47.84626,-54.09684
2019-10-27 16:00:00+00:00,180.1314,9.77,14.56,47.84626,-54.09684
2019-10-27 16:10:00+00:00,178.5515,9.77,14.64,47.84626,-54.09684
2019-10-27 16:20:00+00:00,180.9948,9.79,15.2,47.84626,-54.09684
2019-10-27 16:30:00+00:00,180.2481,9.8,14.96,47.84626,-54.09684
2019-10-27 16:40:00+00:00,176.0148,9.8,14.96,47.84626,-54.09684
2019-10-27 16:50:00+00:00,174.6881,9.8,14.48,47.84626,-54.09684
2019-10-27 17:00:00+00:00,176.1231,9.76,14.8,47.84626,-54.09684
2019-10-27 17:10:00+00:00,174.5482,9.79,14.72,47.84626,-54.09684
2019-10-27 17:20:00+00:00,174.0382,9.8,14.48,47.84626,-54.09684
2019-10-27 17:30:00+00:00,174.8898,9.8,14.4,47.84626,-54.09684
2019-10-27 17:40:00+00:00,174.8398,9.8,14.4,47.84626,-54.09684
2019-10-27 17:50:00+00:00,179.3864,9.8,14.32,47.84626,-54.09684
2019-10-27 18:00:00+00:00,184.6515,9.81,14.24,47.84626,-54.09684
2019-10-27 18:10:00+00:00,190.1431,9.81,14.16,47.84626,-54.09684
2019-10-27 18:20:00+00:00,194.6415,9.8,14.4,47.84626,-54.09684
2019-10-27 18:30:00+00:00,197.3198,9.8,14.48,47.84626,-54.09684
2019-10-27 18:40:00+00:00,201.1081,9.8,14.48,47.84626,-54.09684
2019-10-27 18:50:00+00:00,206.8197,9.8,14.56,47.84626,-54.09684
2019-10-27 19:00:00+00:00,215.1565,9.77,14.32,47.84626,-54.09684
2019-10-27 19:10:00+00:00,220.3665,9.73,14.24,47.84626,-54.09684
2019-10-27 19:20:00+00:00,222.9831,9.78,14.24,47.84626,-54.09684
2019-10-27 19:30:00+00:00,229.0881,9.77,14.24,47.84626,-54.09684
2019-10-27 19:40:00+00:00,237.4398,9.7,14.16,47.84626,-54.09684
2019-10-27 19:50:00+00:00,245.2864,9.74,14.08,47.84626,-54.09684
2019-10-27 20:00:00+00:00,253.4348,9.75,14.0,47.84626,-54.09684
2019-10-27 20:10:00+00:00,263.6414,9.7,13.84,47.84626,-54.09684
2019-10-27 20:20:00+00:00,272.3997,9.7,13.76,47.84626,-54.09684
2019-10-27 20:30:00+00:00,279.3881,9.7,13.68,47.84626,-54.09684
2019-10-27 20:40:00+00:00,288.0548,9.6,13.68,47.84626,-54.09684
2019-10-27 20:50:00+00:00,300.0947,9.64,13.68,47.84626,-54.09684
2019-10-27 21:00:00+00:00,307.343,9.69,13.53,47.84626,-54.09684
2019-10-27 21:10:00+00:00,315.1863,9.7,13.37,47.84626,-54.09684
2019-10-27 21:20:00+00:00,329.8514,9.7,13.37,47.84626,-54.09684
2019-10-27 21:30:00+00:00,343.278,9.68,13.29,47.84626,-54.09684
2019-10-27 21:40:00+00:00,350.4796,9.69,13.29,47.84626,-54.09684
2019-10-27 21:50:00+00:00,357.1812,9.7,13.29,47.84626,-54.09684
2019-10-27 22:00:00+00:00,367.8396,9.7,13.21,47.84626,-54.09684
2019-10-27 22:10:00+00:00,376.2212,9.7,13.05,47.84626,-54.09684
2019-10-27 22:20:00+00:00,377.848,9.7,13.05,47.84626,-54.09684
2019-10-27 22:30:00+00:00,382.6412,9.7,13.05,47.84626,-54.09684
2019-10-27 22:40:00+00:00,388.3413,9.69,13.05,47.84626,-54.09684
2019-10-27 22:50:00+00:00,389.0729,9.66,13.05,47.84626,-54.09684
2019-10-27 23:00:00+00:00,385.1829,9.66,12.97,47.84626,-54.09684
2019-10-27 23:10:00+00:00,384.9396,9.63,12.81,47.84626,-54.09684
2019-10-27 23:20:00+00:00,384.2913,9.61,12.97,47.84626,-54.09684
2019-10-27 23:30:00+00:00,380.2163,9.65,12.97,47.84626,-54.09684
2019-10-27 23:40:00+00:00,374.3347,9.66,12.97,47.84626,-54.09684
2019-10-27 23:50:00+00:00,374.0748,9.67,12.97,47.84626,-54.09684
